• In Uzbekistan
  • List of Countries
  • For 7 days
  • Water Temperature
  • Satellite Maps
  • Weather Map
  • Weather Widgets
  • user-avatar
    Login

    Hourly Weather Ordino

    Today, 21 February, Wednesday

    Time Temperature Precipitation Wind Pressure Humidity
    00:00 -1°C° 0.4 mm 3 mps 627 mmHg 87%
    01:00 -2°C° 0.9 mm 3 mps 627 mmHg 87%
    02:00 -2°C° 0.9 mm 2 mps 626 mmHg 88%
    03:00 -2°C° 0.9 mm 2 mps 626 mmHg 89%
    04:00 -2°C° 0.9 mm 2 mps 626 mmHg 89%
    05:00 -4°C° 0.9 mm 3 mps 626 mmHg 89%
    06:00 -4°C° 0.9 mm 3 mps 625 mmHg 89%
    07:00 -4°C° 0.2 mm 3 mps 625 mmHg 85%
    08:00 -5°C° 0.2 mm 4 mps 625 mmHg 82%
    09:00 -5°C° 0.2 mm 4 mps 626 mmHg 78%
    10:00 -4°C° 0 mm 4 mps 626 mmHg 73%
    11:00 -4°C° 0 mm 4 mps 626 mmHg 68%
    12:00 -4°C° 0 mm 4 mps 626 mmHg 64%
    13:00 -4°C° 0 mm 4 mps 626 mmHg 64%
    14:00 -4°C° 0 mm 4 mps 626 mmHg 64%
    15:00 -4°C° 0 mm 4 mps 625 mmHg 65%
    16:00 -5°C° 0 mm 4 mps 625 mmHg 69%
    17:00 -7°C° 0 mm 3 mps 625 mmHg 73%
    18:00 -8°C° 0 mm 3 mps 625 mmHg 77%
    19:00 -8°C° 0 mm 3 mps 625 mmHg 77%
    20:00 -9°C° 0 mm 3 mps 625 mmHg 78%
    21:00 -10°C° 0 mm 3 mps 625 mmHg 78%
    22:00 -10°C° 0 mm 3 mps 624 mmHg 77%
    23:00 -10°C° 0 mm 3 mps 624 mmHg 77%

    Tomorrow, 22 February, Thursday

    Time Temperature Precipitation Wind Pressure Humidity
    00:00 -12°C° 0 mm 3 mps 624 mmHg 77%
    01:00 -12°C° 0 mm 3 mps 624 mmHg 77%
    02:00 -12°C° 0 mm 3 mps 624 mmHg 76%
    03:00 -12°C° 0 mm 3 mps 623 mmHg 76%
    04:00 -12°C° 0 mm 3 mps 623 mmHg 76%
    05:00 -12°C° 0 mm 3 mps 623 mmHg 76%
    06:00 -12°C° 0 mm 3 mps 623 mmHg 76%
    07:00 -9°C° 0 mm 3 mps 623 mmHg 73%
    08:00 -9°C° 0 mm 4 mps 624 mmHg 70%
    09:00 -8°C° 0 mm 4 mps 624 mmHg 67%
    10:00 -7°C° 0 mm 4 mps 624 mmHg 64%
    11:00 -5°C° 0 mm 4 mps 624 mmHg 61%
    12:00 -4°C° 0 mm 4 mps 624 mmHg 58%
    13:00 -4°C° 0 mm 4 mps 624 mmHg 58%
    14:00 -4°C° 0 mm 4 mps 624 mmHg 58%
    15:00 -4°C° 0 mm 4 mps 623 mmHg 59%
    16:00 -7°C° 0 mm 4 mps 623 mmHg 64%
    17:00 -7°C° 0 mm 3 mps 623 mmHg 70%
    18:00 -9°C° 0 mm 3 mps 623 mmHg 75%
    19:00 -9°C° 0 mm 3 mps 623 mmHg 75%
    20:00 -10°C° 0 mm 3 mps 623 mmHg 76%
    21:00 -10°C° 0 mm 3 mps 623 mmHg 76%
    22:00 -12°C° 0 mm 3 mps 623 mmHg 76%
    23:00 -12°C° 0 mm 3 mps 623 mmHg 76%

    Day after tomorrow, 23 February, Friday

    Time Temperature Precipitation Wind Pressure Humidity
    00:00 -10°C° 0 mm 2 mps 622 mmHg 75%
    01:00 -10°C° 0 mm 2 mps 622 mmHg 74%
    02:00 -10°C° 0 mm 2 mps 622 mmHg 73%
    03:00 -12°C° 0 mm 2 mps 622 mmHg 73%
    04:00 -12°C° 0 mm 2 mps 622 mmHg 72%
    05:00 -12°C° 0 mm 2 mps 622 mmHg 71%
    06:00 -12°C° 0 mm 2 mps 622 mmHg 70%
    07:00 -9°C° 0 mm 2 mps 623 mmHg 66%
    08:00 -7°C° 0 mm 2 mps 624 mmHg 62%
    09:00 -3°C° 0 mm 1 mps 625 mmHg 58%
    10:00 -1°C° 0 mm 1 mps 625 mmHg 57%
    11:00 0°C° 0 mm 1 mps 625 mmHg 55%
    12:00 +2°C° 0 mm 1 mps 626 mmHg 53%
    13:00 +2°C° 0 mm 1 mps 626 mmHg 55%
    14:00 +2°C° 0 mm 1 mps 625 mmHg 56%
    15:00 +2°C° 0 mm 1 mps 625 mmHg 57%
    16:00 -1°C° 0 mm 1 mps 624 mmHg 64%
    17:00 -3°C° 0 mm 1 mps 624 mmHg 71%
    18:00 -6°C° 0 mm 0 mps 623 mmHg 79%
    19:00 -6°C° 0 mm 0 mps 623 mmHg 78%
    20:00 -7°C° 0 mm 1 mps 623 mmHg 76%
    21:00 -7°C° 0 mm 1 mps 624 mmHg 75%
    22:00 -7°C° 0 mm 1 mps 624 mmHg 74%
    23:00 -7°C° 0 mm 1 mps 623 mmHg 72%

    24 February, Saturday

    Time Temperature Precipitation Wind Pressure Humidity
    00:00 -7°C° 0 mm 1 mps 623 mmHg 71%
    01:00 -8°C° 0 mm 1 mps 623 mmHg 70%
    02:00 -8°C° 0 mm 1 mps 623 mmHg 68%
    03:00 -8°C° 0 mm 1 mps 623 mmHg 67%
    04:00 -8°C° 0 mm 1 mps 623 mmHg 65%
    05:00 -8°C° 0 mm 1 mps 623 mmHg 62%
    06:00 -8°C° 0 mm 1 mps 623 mmHg 60%
    07:00 -4°C° 0 mm 1 mps 624 mmHg 57%
    08:00 -3°C° 0 mm 0 mps 625 mmHg 54%
    09:00 -1°C° 0 mm 0 mps 626 mmHg 50%
    10:00 +2°C° 0 mm 1 mps 626 mmHg 49%
    11:00 +3°C° 0 mm 1 mps 627 mmHg 48%
    12:00 +4°C° 0 mm 1 mps 627 mmHg 47%
    13:00 +4°C° 0 mm 1 mps 627 mmHg 49%
    14:00 +4°C° 0 mm 1 mps 627 mmHg 51%
    15:00 +4°C° 0 mm 1 mps 626 mmHg 52%
    16:00 +2°C° 0 mm 1 mps 626 mmHg 60%
    17:00 0°C° 0 mm 1 mps 626 mmHg 67%
    18:00 -2°C° 0 mm 1 mps 625 mmHg 74%
    19:00 -2°C° 0 mm 1 mps 625 mmHg 75%
    20:00 -3°C° 0 mm 1 mps 626 mmHg 76%
    21:00 -3°C° 0 mm 1 mps 626 mmHg 77%
    22:00 -3°C° 0 mm 1 mps 626 mmHg 77%
    23:00 -3°C° 0 mm 1 mps 626 mmHg 76%

    25 February, Sunday

    Time Temperature Precipitation Wind Pressure Humidity
    00:00 -3°C° 0 mm 1 mps 626 mmHg 76%
    01:00 -4°C° 0 mm 1 mps 626 mmHg 73%
    02:00 -4°C° 0 mm 1 mps 626 mmHg 71%
    03:00 -4°C° 0 mm 1 mps 626 mmHg 69%
    04:00 -7°C° 0 mm 2 mps 626 mmHg 67%
    05:00 -7°C° 0 mm 2 mps 626 mmHg 65%
    06:00 -7°C° 0 mm 2 mps 626 mmHg 63%
    07:00 -4°C° 0 mm 2 mps 627 mmHg 61%
    08:00 0°C° 0 mm 1 mps 628 mmHg 58%
    09:00 +2°C° 0 mm 1 mps 629 mmHg 56%
    10:00 +2°C° 0 mm 2 mps 629 mmHg 56%
    11:00 +3°C° 0 mm 2 mps 629 mmHg 56%
    12:00 +5°C° 0 mm 2 mps 630 mmHg 56%
    13:00 +5°C° 0 mm 2 mps 629 mmHg 57%
    14:00 +4°C° 0 mm 3 mps 629 mmHg 57%
    15:00 +4°C° 0 mm 3 mps 629 mmHg 57%
    16:00 +3°C° 0 mm 2 mps 628 mmHg 63%
    17:00 -1°C° 0 mm 2 mps 628 mmHg 70%
    18:00 -3°C° 0 mm 2 mps 627 mmHg 76%
    19:00 -3°C° 0 mm 2 mps 627 mmHg 73%
    20:00 -4°C° 0 mm 2 mps 627 mmHg 70%
    21:00 -5°C° 0 mm 2 mps 627 mmHg 67%
    22:00 -5°C° 0 mm 2 mps 627 mmHg 64%
    23:00 -5°C° 0 mm 2 mps 627 mmHg 62%

    26 February, Monday

    Time Temperature Precipitation Wind Pressure Humidity
    00:00 -5°C° 0 mm 2 mps 627 mmHg 59%
    01:00 -5°C° 0 mm 2 mps 627 mmHg 58%
    02:00 -5°C° 0 mm 2 mps 626 mmHg 57%
    03:00 -5°C° 0 mm 2 mps 626 mmHg 56%
    04:00 -4°C° 0 mm 1 mps 626 mmHg 55%
    05:00 -4°C° 0 mm 1 mps 626 mmHg 55%
    06:00 -4°C° 0 mm 1 mps 626 mmHg 55%
    07:00 -2°C° 0 mm 1 mps 627 mmHg 54%
    08:00 0°C° 0 mm 1 mps 627 mmHg 53%
    09:00 +2°C° 0 mm 1 mps 628 mmHg 52%
    10:00 +3°C° 0 mm 1 mps 628 mmHg 53%
    11:00 +4°C° 0 mm 1 mps 628 mmHg 53%
    12:00 +4°C° 0 mm 2 mps 628 mmHg 54%
    13:00 +4°C° 0 mm 2 mps 628 mmHg 55%
    14:00 +4°C° 0 mm 2 mps 627 mmHg 56%
    15:00 +4°C° 0 mm 2 mps 627 mmHg 58%
    16:00 +2°C° 0 mm 2 mps 626 mmHg 64%
    17:00 -1°C° 0 mm 2 mps 626 mmHg 70%
    18:00 -3°C° 0 mm 2 mps 625 mmHg 76%
    19:00 -3°C° 0 mm 2 mps 625 mmHg 78%
    20:00 -3°C° 0 mm 2 mps 625 mmHg 80%
    21:00 -4°C° 0 mm 2 mps 625 mmHg 82%
    22:00 -4°C° 0 mm 2 mps 625 mmHg 82%
    23:00 -4°C° 0 mm 2 mps 624 mmHg 83%
    Show more